Overview Statistics Trail Chart Weather Telemetry Raw packets
 

This is the latest recevied weather packets stored in our database for station/object IN3MWE-10. If no packets are shown the sender has not sent any weather packets the latest 10 day(s).

<< 13 14 15 16 17 18 19 >>
Time Temp. Humidity Pressure Rain* Wind** Luminosity Snow
1788343517 31.67° C 36% 983.9 hPa - - - -
1788342617 31.67° C 37% 984.2 hPa - - - -
1788341717 31.67° C 37% 984.2 hPa - - - -
1788340817 28.89° C 42% 984.4 hPa - - - -
1788339916 28.33° C 46% 984.5 hPa - - - -
1788339016 29.44° C 42% 984.8 hPa - - - -
1788338116 27.78° C 46% 984.9 hPa - - - -
1788337216 28.33° C 49% 984.9 hPa - - - -
1788336316 26.11° C 56% 985.1 hPa - - - -
1788335427 26.11° C 60% 985.3 hPa - - - -
1788334515 24.44° C 73% 985.3 hPa - - - -
1788333615 22.22° C 85% 985.5 hPa - - - -
1788332715 19.44° C 100% 985.6 hPa - - - -
1788331815 19.44° C 100% 985.7 hPa - - - -
1788330915 20° C 100% 985.6 hPa - - - -
1788330015 18.89° C 100% 985.5 hPa - - - -
1788329115 19.44° C 100% 985.7 hPa - - - -
1788328214 18.89° C 100% 985.6 hPa - - - -
1788327314 18.89° C 100% 985.6 hPa - - - -
1788326414 19.44° C 100% 985.3 hPa - - - -
1788325514 19.44° C 100% 985.1 hPa - - - -
1788324614 19.44° C 100% 985.3 hPa - - - -
1788323714 18.89° C 100% 985.2 hPa - - - -
1788322814 18.89° C 100% 985.1 hPa - - - -
1788321914 18.89° C 100% 985 hPa - - - -

* Rain since midnight (hover to see other rain measurements)
** Current wind speed in m/s (hover to see current wind gust speed)